Voltar ao catálogo

STARLINK-4179

AtivoComunicaçõesVLEO
NORAD 53275·PAYLOAD·🇺🇸 United States

Lançado Jul 24, 2022 de Cape Canaveral Space Force Station

Loading…

Próximas Passagens (próximas 24 horas)

TLE

AtualizadoSource: CelesTrak SupGP

Época: Sep 14, 2026, 22:00 UTC

1 53275C 22086AK  26257.91715278  .00024746  00000+0  70801-3 0  2570
2 53275  53.1584  40.1741 0001169  82.8205  55.8953 15.35386170    14

Acompanhe STARLINK-4179 em tempo real com AllMySat

Download on the App Store